Regional Weather Roundup
Issued by NWS

Home | Current Version | Previous Version | Text Only | Print | Product List | Glossary Off
Versions: 1 2 3 4 5 6 7 8 9 10 11 12 13 14 15 16 17 18 19 20 21 22 23 24 25 26 27 28 29 30 31 32 33 34 35 36 37 38 39 40 41 42 43 44 45 46 47 48 49 50

000
ASUS45 KSLC 250110
RWRUT

UTAH REGIONAL WEATHER ROUNDUP
NATIONAL WEATHER SERVICE SALT LAKE CITY UT
700 PM MDT SUN MAY 24 2015

UTZ001>011-023>025-250200-

NORTHERN UTAH

CITY           SKY/WX    TMP DP  RH WIND       PRES   REMARKS
BRIGHAM CITY   PTSUNNY   62  45  53 NE3       29.88R
HILL AFB       MOSUNNY   62  45  54 W8        29.89S
LOGAN          MOSUNNY   55  46  71 W8        29.87R
OGDEN          MOSUNNY   62  44  51 W7        29.88S
PROVO AIRPORT  MOSUNNY   59  46  63 SW9       29.90
SALT LAKE CITY PTSUNNY   65  43  44 VRB3      29.87F
VERNAL         CLOUDY    52  42  69 CALM      29.91F
WENDOVER       CLOUDY    64  45  48 W12       29.90F
HEBER CITY     CLOUDY    59  41  51 SW7       29.89F
WEST JORDAN    PTSUNNY   63  41  45 N8        29.89F

$$

UTZ012>022-026-027-250200-

SOUTHERN/CENTRAL UTAH

CITY           SKY/WX    TMP DP  RH WIND       PRES   REMARKS
BLANDING       MOSUNNY   58  42  54 SE8       29.98S
BRYCE CANYON   PTSUNNY   50  37  61 NW15      30.00R
CEDAR CITY     PTSUNNY   58  47  66 NW9       29.95S
DELTA          PTSUNNY   64  40  42 W7        29.89F
HANKSVILLE     SUNNY     70  34  26 SW7       29.83S
MILFORD        PTSUNNY   59  46  62 S7        29.92F
MOAB/CYNLANDS  SUNNY     68  33  27 VRB5      29.81F
PRICE          MOSUNNY   63  34  33 NW10G20   29.87S
ST GEORGE      MOCLDY    66  48  52 W13       29.88F
KANAB          PTSUNNY   57  48  72 S8        29.97

$$

REGIONAL REPORTS     COLORADO/ARIZONA

CITY           SKY/WX    TMP DP  RH WIND       PRES   REMARKS
CRAIG, CO      CLOUDY    46  39  76 SW9       29.93F
GRAND JUNCTION CLOUDY    58  38  47 NW5       29.87S
RIFLE          LGT RAIN  48  43  82 N3        29.94S
MONTROSE       CLOUDY    55  39  54 N13       29.92S
CORTEZ         SUNNY     57  39  51 W7        29.92F
PAGE, AZ       CLOUDY    66  46  48 CALM      29.87F
GRAND CANYON   CLOUDY    48  45  89 CALM      30.03R
KINGMAN        PTSUNNY   73  38  27 SW14      29.88S
FLAGSTAFF      PTSUNNY   49  43  80 SW7       30.05F

$$

REGIONAL REPORTS    NEVADA/IDAHO/WYOMING

CITY           SKY/WX    TMP DP  RH WIND       PRES   REMARKS
LAS VEGAS, NV  PTSUNNY   81  43  26 SW7       29.75F
ELY            CLOUDY    52  41  66 N17G30    30.01F
ELKO           CLOUDY    54  49  83 SW6       29.95F
POCATELLO, ID  MOSUNNY   61  47  59 SW14      29.89F
BURLEY         CLOUDY    55  49  80 W5        29.89R
EVANSTON, WY   LGT RAIN  47  42  83 SW10      29.95F
ROCK SPRINGS   LGT RAIN  44  40  85 NE8       29.96S FOG
KEMMERER       LGT RAIN  43  41  93 SE3       29.96S

$$



USA.gov is the U.S. government's official web portal to all federal, state and local government web resources and services.